Hourly Weather Roundup
Issued by NWS Central Illinois

Home | Current Version | Previous Version | Text Only | Print | Product List | Glossary On
Versions: 1 2 3 4 5 6 7 8 9 10 11 12 13 14 15 16 17 18 19 20 21 22 23 24 25 26 27 28 29 30 31 32 33 34 35 36 37 38 39 40 41 42 43 44 45 46 47 48 49 50
000
NZUS43 KILX 301810
HWRILX

AREA WEATHER ROUNDUP
NATIONAL WEATHER SERVICE, LINCOLN IL
100 PM CDT THU JUL 30 2015


CITY           SKY/WX    TMP DP  RH WIND       PRES   REMARKS
BLOOMINGTON    SUNNY     85  62  45 NW12      30.15S HX  85
6HR MIN TEMP:  70; 6HR MAX TEMP:  85;

CHAMPAIGN      SUNNY     84  64  50 NW9       30.14S HX  85
6HR MIN TEMP:  63; 6HR MAX TEMP:  84;

DANVILLE       SUNNY     83  61  47 NW10      30.10S HX  83
6HR MIN TEMP:  65; 6HR MAX TEMP:  83;

DECATUR        SUNNY     87  60  40 W13       30.14F HX  87
6HR MIN TEMP:  70; 6HR MAX TEMP:  87;

EFFINGHAM      SUNNY     85  56  36 NW9       30.16S HX  84
FLORA          SUNNY     85  59  41 NW8       30.15F HX  84
6HR MIN TEMP:  66; 6HR MAX TEMP:  85;

GALESBURG      SUNNY     84  66  54 W7        30.14F HX  86
JACKSONVILLE   SUNNY     87  63  44 NW9       30.16S HX  87
6HR MIN TEMP:  66; 6HR MAX TEMP:  87;

LACON          SUNNY     83  62  49 NW7       30.11F HX  84
6HR MIN TEMP:  67; 6HR MAX TEMP:  83;

LAWRENCEVILLE  SUNNY     85  59  41 N14       30.14R HX  84
6HR MIN TEMP:  66; 6HR MAX TEMP:  86;

LITCHFIELD     SUNNY     83  62  47 NW8       30.17S HX  84
$$


CITY           SKY/WX    TMP DP  RH WIND       PRES   REMARKS
LINCOLN        SUNNY     88  60  38 W6        30.13S HX  88
6HR MIN TEMP:  69; 6HR MAX TEMP:  88;

MACOMB         SUNNY     84  62  46 W9        30.17F HX  84
MATTOON        SUNNY     86  58  38 NW15      30.14S HX  85
6HR MIN TEMP:  66; 6HR MAX TEMP:  86;

MT CARMEL AP   SUNNY     88  54  31 N8        30.14R HX  86
OLNEY-NOBLE AP SUNNY     82  64  54 NW9       30.15S HX  84
PARIS          SUNNY     85  62  45 NW8G16    30.14S HX  85
6HR MIN TEMP:  64; 6HR MAX TEMP:  85;

PEORIA         SUNNY     86  64  47 VRB7      30.13F HX  87
6HR MIN TEMP:  71; 6HR MAX TEMP:  87;

PONTIAC        SUNNY     83  66  57 W12       30.13S HX  85
RANTOUL        SUNNY     85  64  48 NW9G16    30.13S HX  87
6HR MIN TEMP:  67; 6HR MAX TEMP:  85;

ROBINSON       SUNNY     84  60  44 NW6       30.14S HX  84
6HR MIN TEMP:  64; 6HR MAX TEMP:  84;

SPRINGFIELD    SUNNY     86  64  47 NW10      30.15F HX  87
6HR MIN TEMP:  64; 6HR MAX TEMP:  86;

TAYLORVILLE    SUNNY     82  63  51 NW6       30.15S HX  83
$$

...REGIONAL REPORTS...


CITY           SKY/WX    TMP DP  RH WIND       PRES   REMARKS
CHICAGO O`HARE MOSUNNY   86  54  33 W15       30.06S HX  84
KANKAKEE       SUNNY     84  59  42 NW9       30.10S HX  84
MOLINE         SUNNY     86  61  42 W9        30.11F HX  86
MOUNT STERLING NOT AVBL
MOUNT VERNON   SUNNY     84  61  45 NW6       30.16S HX  84
PITTSFIELD     SUNNY     86  59  40 W9        30.18S HX  86
QUINCY         SUNNY     85  61  44 W10       30.17F HX  85
ROCKFORD       MOSUNNY   86  55  34 W17G23    30.09F HX  84
$$


CITY           SKY/WX    TMP DP  RH WIND       PRES   REMARKS
BURLINGTON     SUNNY     84  61  45 W12G20    30.15F HX  84
CEDAR RAPIDS   SUNNY     82  67  60 SW9       30.12F HX  84
DES MOINES     MOSUNNY   87  60  40 W14       30.16F HX  87
KIRKSVILLE     SUNNY     85  58  39 W10       30.20F HX  84
OTTUMWA        SUNNY     83  66  56 W13       30.15F HX  85
ST LOUIS       PTSUNNY   89  58  34 NW5       30.18F HX  88
$$


CITY           SKY/WX    TMP DP  RH WIND       PRES   REMARKS
TERRE HAUTE    SUNNY     86  58  38 W10       30.12F HX  85
EVANSVILLE     SUNNY     87  59  38 N7        30.14S HX  86
INDIANAPOLIS   MOSUNNY   83  55  38 NW12G23   30.10S HX  82
LAFAYETTE      MOSUNNY   83  57  41 NW10G21   30.09S HX  82
MADISON        MOSUNNY   84  56  38 NW13G21   30.04F HX  83
MILWAUKEE      MOSUNNY   86  51  29 W18G30    30.02F HX  84
$$




USA.gov is the U.S. government's official web portal to all federal, state and local government web resources and services.